Location: Newark
(45.8667°N, 9.7333°E)
Time: 18:40:25
(UTC+00:00)

Transit 4A - Pass Details

Date: 26 January 2020
Orbit: 872 x 973 km, 66.8° (Epoch: 26 February)

Event Time Altitude Azimuth Distance (km) Brightness Sun altitude
Rises 06:12:28 0° 221° (SW) 3,544 10.7 -6.9°
Reaches altitude 10° 06:15:02 10° 224° (SW) 2,590 10.0 -6.5°
Maximum altitude 06:20:59 65° 306° (NW) 978 7.8 -5.5°
Drops below altitude 10° 06:26:51 10° 29° (NNE) 2,547 10.3 -4.6°
Sets 06:29:21 0° 32° (NNE) 3,481 11.0 -4.2°
